(459301) = 2012 GN24

Discovered at Catalina on 2007-02-10 by CSS.

Orbit

Orbit type: Main Belt

Note: WebGL enabled browser required.

epoch2023-09-13.0
epoch JD2460200.5
perihelion date2021-01-29.02546
perihelion JD2459243.52546
argument of perihelion (°)151.09419
ascending node (°)23.27998
inclination (°)12.71365
eccentricity0.1457521
perihelion distance (AU)2.3614850
Tisserand w.r.t. Jupiter3.3
ΔV w.r.t. Earth (km/sec)10.4
semimajor axis (AU)2.7644023
mean anomaly (°)205.21182
mean daily motion (°/day)0.21443810
aphelion distance (AU)3.167
period (years)4.6
P-vector [x]-0.99049940
P-vector [y]0.03763880
P-vector [z]0.13226586
Q-vector [x]-0.10651446
Q-vector [y]-0.81833799
Q-vector [z]-0.56478102
absolute magnitude16.69
phase slope0.15
uncertainty0
referenceMPO 780133
observations used247
oppositions11
arc length (days)6586
first opposition used2005
last opposition used2023
residual rms (arc-secs)0.79
perturbers coarse indicatorM-v
perturbers precise indicator003Ek
first observation date used2005-10-27.0
last observation date used2023-11-08.0
computer nameMPCLINUX
JD of orbit computation2457436.803217
perihelion JD uncertainty (days)8.3946E-05
argument of perihelion uncertainty (°)3.1227E-05
ascending node uncertainty (°)2.2156E-05
inclination uncertainty (°)5.5724E-06
eccentricity uncertainty 6.5237E-08
perihelion distance uncertainty (AU)1.9867E-07
Minimum Orbit Intersection Distances (in AU)
for orbit epoch: 2460200.5, reference: E2023-VJ5
Mercury1.96325
Venus1.64267
Earth1.37139
Mars0.72147
Jupiter1.80461
Saturn6.20865
Uranus16.1014
Neptune26.7112

Observations

253 total observations over interval: 2005 10 27.48292 – 2023 11 08.306325
These data are available for download (format description).

Date (UT) J2000 RA J2000 Dec Magn Location Ref
2005 10 27.48292 02 53 21.15 +23 17 34.1 20.8 V 691 – Steward Observatory, Kitt Peak-Spacewatch MPS 457574
2005 10 27.50032 02 53 20.10 +23 17 34.1 21.1 V 691 – Steward Observatory, Kitt Peak-Spacewatch MPS 457574
2005 10 27.51757 02 53 19.05 +23 17 34.4 21.2 V 691 – Steward Observatory, Kitt Peak-Spacewatch MPS 457574
2007 02 10.37543 11 19 05.70 +22 03 51.8 19.9 V 703 – Catalina Sky Survey MPS 457574
2007 02 10.38141 11 19 05.41 +22 03 53.3 20.2 V 703 – Catalina Sky Survey MPS 457574
2007 02 10.38736 11 19 05.12 +22 03 53.4 19.4 V 703 – Catalina Sky Survey MPS 457574
2007 02 10.39331 11 19 04.94 +22 03 56.1 19.2 V 703 – Catalina Sky Survey MPS 457574
2007 02 16.35515 11 14 15.93 +22 25 00.0 19.3 V 703 – Catalina Sky Survey MPS 457574
2007 02 16.36240 11 14 15.72 +22 25 02.0 19.1 V 703 – Catalina Sky Survey MPS 457574
2007 02 16.36961 11 14 15.36 +22 25 04.4 20.4 V 703 – Catalina Sky Survey MPS 457574
2007 02 16.37677 11 14 15.03 +22 25 06.9 19.5 V 703 – Catalina Sky Survey MPS 457574
2009 09 26.33814 00 16 14.91 -05 42 39.2 20.7 V G96 – Mt. Lemmon Survey MPS 457574
2009 09 26.34458 00 16 14.55 -05 42 40.0 20.6 V G96 – Mt. Lemmon Survey MPS 457574
2009 09 26.35079 00 16 14.19 -05 42 40.8 21.2 V G96 – Mt. Lemmon Survey MPS 457574
2009 09 26.35707 00 16 13.87 -05 42 41.7 20.7 V G96 – Mt. Lemmon Survey MPS 457574
2012 03 16.44507 14 41 58.55 -16 28 38.6 20.7 V 691 – Steward Observatory, Kitt Peak-Spacewatch MPS 457574
2012 03 16.46282 14 41 58.26 -16 28 43.9 20.6 V 691 – Steward Observatory, Kitt Peak-Spacewatch MPS 457574
2012 03 16.48057 14 41 57.96 -16 28 49.2 20.6 V 691 – Steward Observatory, Kitt Peak-Spacewatch MPS 457574
2012 03 24.36402 14 39 05.18 -17 05 23.0 20.5 V 691 – Steward Observatory, Kitt Peak-Spacewatch MPS 457574
2012 03 24.38179 14 39 04.62 -17 05 27.9 20.4 V 691 – Steward Observatory, Kitt Peak-Spacewatch MPS 457574
2012 03 24.39956 14 39 04.08 -17 05 32.6 20.2 V 691 – Steward Observatory, Kitt Peak-Spacewatch MPS 457574
2012 03 28.38957 14 36 52.78 -17 21 49.7 20.3 V 691 – Steward Observatory, Kitt Peak-Spacewatch MPS 457574
2012 03 28.40735 14 36 52.11 -17 21 53.5 20.0 V 691 – Steward Observatory, Kitt Peak-Spacewatch MPS 457574
2012 03 28.42513 14 36 51.42 -17 21 57.9 19.9 V 691 – Steward Observatory, Kitt Peak-Spacewatch MPS 457574
2012 04 13.33911 14 24 02.55 -18 10 40.0 19.9 V G96 – Mt. Lemmon Survey MPS 424004
2012 04 13.34259 14 24 02.34 -18 10 40.4 19.8 V G96 – Mt. Lemmon Survey MPS 424004
2012 04 13.34603 14 24 02.12 -18 10 40.8 19.9 V G96 – Mt. Lemmon Survey MPS 424005
2012 04 13.34951 14 24 01.94 -18 10 41.3 19.6 V G96 – Mt. Lemmon Survey MPS 424005
2012 04 15.42766 14 21 59.436 -18 15 02.28 19.6 w F51 – Pan-STARRS 1, Haleakala MPS 424005
2012 04 15.44159 14 21 58.569 -18 15 04.03 19.7 w F51 – Pan-STARRS 1, Haleakala MPS 424005
2012 04 15.45544 14 21 57.704 -18 15 05.63 19.8 w F51 – Pan-STARRS 1, Haleakala MPS 424005
2012 04 28.25723 14 08 36.96 -18 32 40.3 19.2 V G96 – Mt. Lemmon Survey MPS 457574
2012 04 28.26406 14 08 36.49 -18 32 40.7 19.4 V G96 – Mt. Lemmon Survey MPS 457574
2012 04 28.27094 14 08 36.06 -18 32 40.9 19.6 V G96 – Mt. Lemmon Survey MPS 457574
2012 04 28.27784 14 08 35.59 -18 32 41.5 19.4 V G96 – Mt. Lemmon Survey MPS 457574
2014 10 13.32923 02 02 16.11 +14 26 42.0 20.8 V G96 – Mt. Lemmon Survey MPS 538961
2014 10 13.33549 02 02 15.78 +14 26 41.0 20.4 V G96 – Mt. Lemmon Survey MPS 538961
2014 10 13.34177 02 02 15.39 +14 26 41.1 20.8 V G96 – Mt. Lemmon Survey MPS 538961
2014 10 17.35273 01 58 32.26 +14 21 42.1 20.9 V G96 – Mt. Lemmon Survey MPS 538961
2014 10 17.35817 01 58 31.94 +14 21 41.7 20.8 V G96 – Mt. Lemmon Survey MPS 538961
2014 10 17.36362 01 58 31.66 +14 21 41.7 20.9 V G96 – Mt. Lemmon Survey MPS 538961
2014 10 17.36906 01 58 31.35 +14 21 40.9 20.9 V G96 – Mt. Lemmon Survey MPS 538961
2014 10 22.29146 01 53 49.02 +14 14 16.3 19.9 V G96 – Mt. Lemmon Survey MPS 540539
2014 10 22.31658 01 53 47.53 +14 14 13.7 20.2 V G96 – Mt. Lemmon Survey MPS 540539
2014 10 22.32479 01 53 47.05 +14 14 12.8 20.3 V G96 – Mt. Lemmon Survey MPS 540539
2014 10 25.33092 01 50 52.59 +14 09 07.3 20.6 r G45 – Space Surveillance Telescope, Atom Site MPS 553232
2014 10 25.34207 01 50 51.94 +14 09 06.4 20.3 r G45 – Space Surveillance Telescope, Atom Site MPS 553232
2014 10 25.35318 01 50 51.21 +14 09 05.2 20.5 r G45 – Space Surveillance Telescope, Atom Site MPS 553232
2014 10 25.36430 01 50 50.62 +14 09 04.5 20.4 r G45 – Space Surveillance Telescope, Atom Site MPS 553232
2014 10 25.37377 01 50 50.03 +14 09 03.4 20.6 r G45 – Space Surveillance Telescope, Atom Site MPS 553232
2014 10 25.38688 01 50 49.21 +14 09 00.5 20.0 r G45 – Space Surveillance Telescope, Atom Site MPS 553232
2014 10 25.47154 01 50 44.402 +14 08 54.11 20.8 w F51 – Pan-STARRS 1, Haleakala MPS 542342
2014 10 25.48377 01 50 43.671 +14 08 52.84 20.6 w F51 – Pan-STARRS 1, Haleakala MPS 542342
2014 10 25.49604 01 50 42.946 +14 08 51.50 20.6 w F51 – Pan-STARRS 1, Haleakala MPS 542342
2014 10 25.50831 01 50 42.205 +14 08 49.90 20.5 w F51 – Pan-STARRS 1, Haleakala MPS 542342
2014 11 01.20344 01 44 18.33 +13 56 34.1 20.1 V G96 – Mt. Lemmon Survey MPS 544311
2014 11 01.21223 01 44 17.86 +13 56 34.0 20.3 V G96 – Mt. Lemmon Survey MPS 544311
2014 11 01.22388 01 44 17.18 +13 56 32.5 19.9 V G96 – Mt. Lemmon Survey MPS 544311
2014 11 01.23268 01 44 16.66 +13 56 31.8 20.9 V G96 – Mt. Lemmon Survey MPS 544311
2015 12 07.52025 09 43 36.747 +31 26 13.03 21.0 w F51 – Pan-STARRS 1, Haleakala MPS 657311
2015 12 07.53249 09 43 37.124 +31 26 15.71 20.9 w F51 – Pan-STARRS 1, Haleakala MPS 657311
2015 12 07.54475 09 43 37.501 +31 26 18.52 20.8 w F51 – Pan-STARRS 1, Haleakala MPS 657311
2015 12 07.55704 09 43 37.879 +31 26 21.38 20.8 w F51 – Pan-STARRS 1, Haleakala MPS 657311
2016 01 13.44434 09 41 31.538 +34 50 10.73 20.5 w F51 – Pan-STARRS 1, Haleakala MPS 668502
2016 01 13.45507 09 41 31.072 +34 50 14.81 20.5 w F51 – Pan-STARRS 1, Haleakala MPS 668502
2016 01 13.46582 09 41 30.611 +34 50 18.95 20.2 w F51 – Pan-STARRS 1, Haleakala MPS 668502
2016 01 13.47657 09 41 30.141 +34 50 22.99 20.2 w F51 – Pan-STARRS 1, Haleakala MPS 668502
2016 01 27.53484 09 29 11.553 +36 06 06.83 20.3 r F51 – Pan-STARRS 1, Haleakala MPS 674076
2016 01 27.54563 09 29 10.865 +36 06 09.70 20.2 r F51 – Pan-STARRS 1, Haleakala MPS 674076
2016 01 27.55610 09 29 10.178 +36 06 12.32 20.0 r F51 – Pan-STARRS 1, Haleakala MPS 674076
2016 02 02.72706 09 22 30.63 +36 28 13.6 20.0 R D29 – Purple Mountain Observatory, XuYi Station MPS 675361
2016 02 02.74297 09 22 29.53 +36 28 16.0 20.0 R D29 – Purple Mountain Observatory, XuYi Station MPS 675361
2016 02 02.75888 09 22 28.46 +36 28 18.9 19.5 R D29 – Purple Mountain Observatory, XuYi Station MPS 675361
2016 02 03.36361 09 21 48.04 +36 29 59.0 20.0 V 703 – Catalina Sky Survey MPS 675361
2016 02 03.36822 09 21 47.71 +36 29 59.7 20.0 V 703 – Catalina Sky Survey MPS 675361
2016 02 03.37735 09 21 46.94 +36 30 01.3 19.7 V 703 – Catalina Sky Survey MPS 675361
2016 02 05.28604 09 19 38.66 +36 34 37.7 19.9 V G96 – Mt. Lemmon Survey MPS 675361
2016 02 05.29191 09 19 38.24 +36 34 38.3 20.1 V G96 – Mt. Lemmon Survey MPS 675361
2016 02 05.29778 09 19 37.84 +36 34 39.0 20.3 V G96 – Mt. Lemmon Survey MPS 675361
2016 02 05.30367 09 19 37.42 +36 34 40.2 20.1 V G96 – Mt. Lemmon Survey MPS 675361
2016 02 11.34472 09 12 48.81 +36 42 36.8 19.9 V 703 – Catalina Sky Survey MPS 679184
2016 02 11.35695 09 12 47.94 +36 42 36.6 19.5 V 703 – Catalina Sky Survey MPS 679184
2016 02 11.37731 09 12 46.44 +36 42 37.4 20.2 V 703 – Catalina Sky Survey MPS 679184
2016 02 15.13020 09 08 39.99 +36 42 14.4 20.0 r G45 – Space Surveillance Telescope, Atom Site MPS 682617
2016 02 15.13519 09 08 39.63 +36 42 15.0 20.1 r G45 – Space Surveillance Telescope, Atom Site MPS 682617
2016 02 15.14014 09 08 39.32 +36 42 15.0 20.6 r G45 – Space Surveillance Telescope, Atom Site MPS 682617
2016 02 15.14492 09 08 39.06 +36 42 14.3 20.7 r G45 – Space Surveillance Telescope, Atom Site MPS 682617
2016 02 17.24162 09 06 25.46 +36 40 15.5 20.0 V 703 – Catalina Sky Survey MPS 682617
2016 02 17.24663 09 06 25.24 +36 40 14.9 20.8 V 703 – Catalina Sky Survey MPS 682617
